Terminal Aerodrome Forecast
Issued by NWS

Home | Current Version | Previous Version | Text Only | Print | Product List | Glossary On
Versions: 1 2 3 4 5 6 7 8 9 10 11 12 13 14 15 16 17 18 19 20 21 22 23 24 25 26 27 28 29
000
FTUS45 KGGW 241700
TAFOLF
TAF
KOLF 241740Z 2418/2518 VRB04KT P6SM SCT160
     FM242100 27008KT P6SM SCT190
     FM250000 31022G33KT P6SM FEW130
     FM250300 30015KT P6SM FEW170
     FM250900 27008KT P6SM SKC=

USA.gov is the U.S. government's official web portal to all federal, state and local government web resources and services.